RYR23ML LIMF-LICT

Flight info

Callsign RYR23ML
Flight time 1h 22m
Altitude 37000
Route LAGEN DCT EVROG DCT BAKRO DCT VELAD DCT TINTO DCT POKAV DCT BETOT DCT RUVIP DCT RONAB/N0335F190 M740 ADUKA
Aircraft B738/M-SDE3FGILRWY/SB1

Departure

Time 2026-04-23 15:45
Airport Turin Airport (LIMF)

Arrival

Time 2026-04-23 17:07
Airport Vincenzo Florio Airport Trapani-Birgi (LICT)
Time Latitude Longitude Altitude Speed Heading
2026-04-23 15:07 45.19353 7.64472 994 ft 0 kts 232°
2026-04-23 15:37 45.19355 7.64474 985 ft 2 kts 232°
2026-04-23 15:37 45.19370 7.64502 993 ft 2 kts 230°
2026-04-23 15:37 45.19385 7.64524 988 ft 4 kts 202°
2026-04-23 15:38 45.19410 7.64527 985 ft 4 kts 175°
2026-04-23 15:38 45.19420 7.64526 985 ft 0 kts 182°
2026-04-23 15:40 45.19388 7.64542 987 ft 9 kts 138°
2026-04-23 15:40 45.19366 7.64656 985 ft 14 kts 68°
2026-04-23 15:40 45.19426 7.64679 985 ft 9 kts
2026-04-23 15:40 45.19485 7.64683 991 ft 8 kts
2026-04-23 15:41 45.19551 7.64687 993 ft 13 kts
2026-04-23 15:41 45.19674 7.64695 987 ft 22 kts
2026-04-23 15:41 45.19839 7.64679 988 ft 24 kts
2026-04-23 15:41 45.20001 7.64692 987 ft 23 kts
2026-04-23 15:42 45.20156 7.64701 988 ft 22 kts
2026-04-23 15:42 45.20308 7.64710 986 ft 21 kts
2026-04-23 15:42 45.20454 7.64720 986 ft 21 kts
2026-04-23 15:42 45.20597 7.64729 985 ft 20 kts
2026-04-23 15:43 45.20735 7.64738 988 ft 20 kts
2026-04-23 15:43 45.20858 7.64760 989 ft 14 kts 46°
2026-04-23 15:43 45.20867 7.64889 989 ft 14 kts 71°
2026-04-23 15:43 45.20844 7.65010 984 ft 14 kts 159°
2026-04-23 15:44 45.20804 7.65011 981 ft 16 kts 183°
2026-04-23 15:44 45.20447 7.64986 982 ft 86 kts 182°
2026-04-23 15:44 45.19645 7.64936 980 ft 143 kts 183°
2026-04-23 15:44 45.18528 7.64860 1201 ft 173 kts 183°
2026-04-23 15:45 45.17239 7.64778 1608 ft 198 kts 183°
2026-04-23 15:45 45.15786 7.64663 1915 ft 218 kts 183°
2026-04-23 15:45 45.14235 7.64546 2288 ft 230 kts 182°
2026-04-23 15:45 45.12612 7.64445 2817 ft 237 kts 181°
2026-04-23 15:46 45.10945 7.64344 3438 ft 242 kts 181°
2026-04-23 15:46 45.09250 7.64242 4229 ft 243 kts 182°
2026-04-23 15:46 45.07564 7.64140 5094 ft 243 kts 182°
2026-04-23 15:46 45.05854 7.64036 5844 ft 249 kts 182°
2026-04-23 15:47 45.04110 7.63929 6596 ft 253 kts 182°
2026-04-23 15:47 45.02338 7.63821 7313 ft 257 kts 182°
2026-04-23 15:47 45.00534 7.63740 7998 ft 262 kts 175°
2026-04-23 15:47 44.98803 7.64507 8589 ft 266 kts 142°
2026-04-23 15:48 44.97585 7.66474 9064 ft 275 kts 111°
2026-04-23 15:48 44.97180 7.69130 9613 ft 281 kts 92°
2026-04-23 15:48 44.97055 7.71914 10288 ft 288 kts 91°
2026-04-23 15:48 44.96946 7.74841 10494 ft 311 kts 91°
2026-04-23 15:49 44.96815 7.77976 10867 ft 326 kts 91°
2026-04-23 15:49 44.96664 7.81195 11539 ft 330 kts 92°
2026-04-23 15:49 44.96503 7.84428 12350 ft 330 kts 92°
2026-04-23 15:49 44.96150 7.87639 13132 ft 336 kts 107°
2026-04-23 15:50 44.95017 7.90540 13958 ft 342 kts 126°
2026-04-23 15:50 44.93463 7.93098 14696 ft 345 kts 129°
2026-04-23 15:50 44.91846 7.95641 15376 ft 350 kts 129°
2026-04-23 15:50 44.90208 7.98214 16082 ft 354 kts 129°
2026-04-23 15:51 44.88562 8.00824 16808 ft 358 kts 129°
2026-04-23 15:51 44.86908 8.03472 17491 ft 363 kts 128°
2026-04-23 15:51 44.85229 8.06170 18106 ft 369 kts 128°
2026-04-23 15:51 44.83529 8.08896 18785 ft 372 kts 130°
2026-04-23 15:52 44.81566 8.11314 19411 ft 378 kts 142°
2026-04-23 15:52 44.79366 8.13362 20063 ft 381 kts 145°
2026-04-23 15:52 44.77122 8.15363 20681 ft 384 kts 145°
2026-04-23 15:52 44.74885 8.17352 21280 ft 387 kts 145°
2026-04-23 15:53 44.72580 8.19421 21889 ft 390 kts 144°
2026-04-23 15:53 44.70323 8.21468 22502 ft 392 kts 144°
2026-04-23 15:53 44.68028 8.23566 23088 ft 395 kts 144°
2026-04-23 15:53 44.65714 8.25691 23665 ft 399 kts 144°
2026-04-23 15:54 44.63388 8.27830 24149 ft 401 kts 144°
2026-04-23 15:54 44.61047 8.29982 24646 ft 403 kts 144°
2026-04-23 15:54 44.58698 8.32142 25136 ft 405 kts 144°
2026-04-23 15:54 44.56337 8.34310 25620 ft 407 kts 144°
2026-04-23 15:55 44.53961 8.36490 26051 ft 410 kts 144°
2026-04-23 15:55 44.51563 8.38688 26455 ft 413 kts 144°
2026-04-23 15:55 44.49146 8.40900 26918 ft 415 kts 144°
2026-04-23 15:55 44.46724 8.43114 27380 ft 417 kts 144°
2026-04-23 15:56 44.44292 8.45337 27823 ft 419 kts 144°
2026-04-23 15:56 44.41843 8.47572 28234 ft 422 kts 144°
2026-04-23 15:56 44.39379 8.49824 28662 ft 423 kts 143°
2026-04-23 15:56 44.37020 8.52269 29087 ft 423 kts 138°
2026-04-23 15:57 44.34758 8.54908 29494 ft 424 kts 136°
2026-04-23 15:57 44.32528 8.57623 29848 ft 427 kts 136°
2026-04-23 15:57 44.30287 8.60369 30198 ft 429 kts 136°
2026-04-23 15:57 44.28033 8.63109 30523 ft 431 kts 136°
2026-04-23 15:58 44.25754 8.65848 30834 ft 433 kts 136°
2026-04-23 15:58 44.23459 8.68578 31123 ft 435 kts 137°
2026-04-23 15:58 44.21143 8.71313 31437 ft 436 kts 137°
2026-04-23 15:58 44.18829 8.74032 31812 ft 436 kts 137°
2026-04-23 15:59 44.16505 8.76754 32152 ft 436 kts 137°
2026-04-23 15:59 44.14183 8.79470 32539 ft 435 kts 137°
2026-04-23 15:59 44.11901 8.82135 32940 ft 434 kts 137°
2026-04-23 15:59 44.09567 8.84860 33326 ft 433 kts 137°
2026-04-23 16:00 44.07289 8.87518 33686 ft 432 kts 137°
2026-04-23 16:00 44.04993 8.90194 34037 ft 432 kts 136°
2026-04-23 16:00 44.02659 8.92910 34367 ft 431 kts 136°
2026-04-23 16:00 44.00357 8.95589 34638 ft 431 kts 137°
2026-04-23 16:01 43.98087 8.98227 34848 ft 433 kts 137°
2026-04-23 16:01 43.95743 9.00950 35096 ft 433 kts 137°
2026-04-23 16:01 43.93458 9.03600 35367 ft 433 kts 137°
2026-04-23 16:01 43.91145 9.06279 35611 ft 434 kts 137°
2026-04-23 16:02 43.88826 9.08963 35837 ft 435 kts 137°
2026-04-23 16:02 43.86504 9.11646 36078 ft 435 kts 137°
2026-04-23 16:02 43.84172 9.14340 36288 ft 437 kts 137°
2026-04-23 16:02 43.81832 9.17040 36460 ft 439 kts 137°
2026-04-23 16:03 43.79485 9.19744 36703 ft 439 kts 137°
2026-04-23 16:03 43.77149 9.22433 36964 ft 438 kts 137°
2026-04-23 16:03 43.74797 9.25137 37171 ft 439 kts 137°
2026-04-23 16:04 43.70061 9.30577 37200 ft 445 kts 138°
2026-04-23 16:04 43.65308 9.36021 37189 ft 442 kts 138°
2026-04-23 16:05 43.61389 9.40500 37186 ft 438 kts 138°
2026-04-23 16:05 43.55892 9.46773 37223 ft 439 kts 138°
2026-04-23 16:06 43.51182 9.52137 37204 ft 440 kts 137°
2026-04-23 16:06 43.46450 9.57513 37194 ft 441 kts 138°
2026-04-23 16:07 43.42519 9.61971 37202 ft 441 kts 138°
2026-04-23 16:07 43.37777 9.67339 37185 ft 442 kts 137°
2026-04-23 16:08 43.33026 9.72706 37191 ft 442 kts 137°
2026-04-23 16:08 43.28269 9.78069 37188 ft 443 kts 138°
2026-04-23 16:09 43.23507 9.83439 37195 ft 443 kts 137°
2026-04-23 16:09 43.18741 9.88811 37189 ft 445 kts 140°
2026-04-23 16:10 43.13442 9.93234 37183 ft 447 kts 148°
2026-04-23 16:10 43.08003 9.97376 37184 ft 447 kts 148°
2026-04-23 16:11 43.02585 10.01540 37183 ft 447 kts 147°
2026-04-23 16:11 42.97187 10.05740 37184 ft 447 kts 147°
2026-04-23 16:12 42.91788 10.09955 37183 ft 447 kts 147°
2026-04-23 16:12 42.86387 10.14165 37179 ft 448 kts 147°
2026-04-23 16:13 42.80974 10.18374 37184 ft 448 kts 147°
2026-04-23 16:13 42.72821 10.24696 37184 ft 451 kts 147°
2026-04-23 16:14 42.67362 10.28917 37169 ft 451 kts 147°
2026-04-23 16:14 42.61900 10.33133 37171 ft 452 kts 147°
2026-04-23 16:15 42.56421 10.37352 37168 ft 453 kts 147°
2026-04-23 16:15 42.50939 10.41567 37163 ft 453 kts 148°
2026-04-23 16:16 42.45447 10.45779 37169 ft 454 kts 148°
2026-04-23 16:16 42.39950 10.49987 37166 ft 454 kts 148°
2026-04-23 16:17 42.34447 10.54191 37164 ft 455 kts 148°
2026-04-23 16:17 42.28937 10.58392 37181 ft 455 kts 147°
2026-04-23 16:18 42.23462 10.62559 37166 ft 455 kts 147°
2026-04-23 16:18 42.17953 10.66743 37156 ft 454 kts 147°
2026-04-23 16:19 42.12455 10.70911 37159 ft 453 kts 147°
2026-04-23 16:19 42.06965 10.75065 37143 ft 452 kts 148°
2026-04-23 16:20 42.01278 10.78717 37161 ft 454 kts 156°
2026-04-23 16:20 41.95374 10.81766 37153 ft 455 kts 156°
2026-04-23 16:21 41.89473 10.84804 37150 ft 454 kts 156°
2026-04-23 16:21 41.83581 10.87906 37151 ft 455 kts 156°
2026-04-23 16:22 41.77691 10.91031 37146 ft 456 kts 156°
2026-04-23 16:22 41.71786 10.94162 37148 ft 457 kts 156°
2026-04-23 16:23 41.65865 10.97291 37145 ft 458 kts 156°
2026-04-23 16:23 41.59923 11.00424 37156 ft 460 kts 156°
2026-04-23 16:24 41.53959 11.03564 37154 ft 462 kts 156°
2026-04-23 16:24 41.47969 11.06710 37148 ft 463 kts 156°
2026-04-23 16:25 41.41957 11.09864 37147 ft 465 kts 156°
2026-04-23 16:25 41.35922 11.13028 37151 ft 467 kts 156°
2026-04-23 16:26 41.29864 11.16198 37152 ft 468 kts 156°
2026-04-23 16:26 41.23796 11.19368 37150 ft 469 kts 156°
2026-04-23 16:27 41.17716 11.22537 37150 ft 470 kts 157°
2026-04-23 16:27 41.11624 11.25705 37160 ft 470 kts 157°
2026-04-23 16:28 41.05530 11.28869 37151 ft 471 kts 157°
2026-04-23 16:28 40.99466 11.32011 37166 ft 471 kts 157°
2026-04-23 16:29 40.93315 11.35193 37162 ft 472 kts 157°
2026-04-23 16:29 40.87240 11.38329 37152 ft 472 kts 157°
2026-04-23 16:30 40.81116 11.41482 37160 ft 472 kts 158°
2026-04-23 16:30 40.74983 11.44631 37143 ft 473 kts 158°
2026-04-23 16:31 40.68846 11.47777 37158 ft 474 kts 158°
2026-04-23 16:31 40.62695 11.50925 37157 ft 475 kts 158°
2026-04-23 16:32 40.56530 11.54074 37156 ft 476 kts 158°
2026-04-23 16:32 40.50354 11.57222 37152 ft 477 kts 159°
2026-04-23 16:33 40.44160 11.60375 37159 ft 478 kts 159°
2026-04-23 16:33 40.37949 11.63529 37156 ft 479 kts 159°
2026-04-23 16:34 40.31728 11.66679 37142 ft 479 kts 158°
2026-04-23 16:34 40.25507 11.69823 37164 ft 479 kts 159°
2026-04-23 16:35 40.19288 11.72962 37153 ft 479 kts 159°
2026-04-23 16:35 40.13069 11.76095 37152 ft 478 kts 159°
2026-04-23 16:36 40.06862 11.79216 37149 ft 477 kts 159°
2026-04-23 16:36 40.00655 11.82316 36730 ft 477 kts 159°
2026-04-23 16:37 39.97577 11.83845 36411 ft 470 kts 159°
2026-04-23 16:37 39.94535 11.85357 36022 ft 466 kts 159°
2026-04-23 16:37 39.91518 11.86856 35648 ft 462 kts 159°
2026-04-23 16:37 39.88509 11.88284 35253 ft 459 kts 163°
2026-04-23 16:38 39.85403 11.89201 34872 ft 456 kts 173°
2026-04-23 16:38 39.82257 11.89486 34509 ft 452 kts 179°
2026-04-23 16:38 39.79124 11.89604 34130 ft 449 kts 180°
2026-04-23 16:38 39.76006 11.89703 33681 ft 447 kts 180°
2026-04-23 16:39 39.72906 11.89806 33283 ft 444 kts 179°
2026-04-23 16:39 39.69825 11.89921 32897 ft 441 kts 179°
2026-04-23 16:39 39.66778 11.90047 32516 ft 437 kts 178°
2026-04-23 16:39 39.63745 11.90180 32145 ft 434 kts 179°
2026-04-23 16:40 39.60734 11.90319 31774 ft 432 kts 179°
2026-04-23 16:40 39.57741 11.90457 31419 ft 429 kts 179°
2026-04-23 16:40 39.54762 11.90596 31063 ft 427 kts 179°
2026-04-23 16:40 39.51844 11.90732 30714 ft 424 kts 179°
2026-04-23 16:41 39.48862 11.90870 30355 ft 422 kts 178°
2026-04-23 16:41 39.45977 11.91004 29965 ft 420 kts 178°
2026-04-23 16:41 39.43026 11.91140 29547 ft 417 kts 178°
2026-04-23 16:41 39.40183 11.91272 29160 ft 414 kts 179°
2026-04-23 16:42 39.37313 11.91405 28783 ft 411 kts 179°
2026-04-23 16:42 39.34469 11.91536 28417 ft 407 kts 179°
2026-04-23 16:42 39.31643 11.91666 28051 ft 404 kts 179°
2026-04-23 16:42 39.28843 11.91795 27684 ft 402 kts 179°
2026-04-23 16:43 39.26062 11.91922 27323 ft 399 kts 178°
2026-04-23 16:43 39.23298 11.92049 26967 ft 396 kts 178°
2026-04-23 16:43 39.20550 11.92175 26614 ft 394 kts 178°
2026-04-23 16:43 39.17825 11.92300 26246 ft 392 kts 180°
2026-04-23 16:44 39.15105 11.92425 25895 ft 390 kts 180°
2026-04-23 16:44 39.12402 11.92549 25548 ft 388 kts 180°
2026-04-23 16:44 39.09705 11.92672 25199 ft 386 kts 180°
2026-04-23 16:44 39.07026 11.92794 24853 ft 385 kts 179°
2026-04-23 16:45 39.04352 11.92916 24493 ft 384 kts 179°
2026-04-23 16:45 39.01687 11.93037 24147 ft 383 kts 179°
2026-04-23 16:45 38.99028 11.93158 23787 ft 382 kts 178°
2026-04-23 16:45 38.96376 11.93279 23394 ft 380 kts 179°
2026-04-23 16:46 38.93735 11.93401 23013 ft 379 kts 180°
2026-04-23 16:46 38.91107 11.93521 22636 ft 377 kts 180°
2026-04-23 16:46 38.88494 11.93640 22287 ft 375 kts 180°
2026-04-23 16:46 38.85897 11.93758 21931 ft 373 kts 180°
2026-04-23 16:47 38.83311 11.93875 21585 ft 371 kts 180°
2026-04-23 16:47 38.80740 11.93992 21245 ft 369 kts 180°
2026-04-23 16:47 38.78184 11.94107 20911 ft 367 kts 180°
2026-04-23 16:47 38.75643 11.94222 20568 ft 365 kts 180°
2026-04-23 16:48 38.73109 11.94337 20219 ft 363 kts 181°
2026-04-23 16:48 38.70585 11.94452 19875 ft 363 kts 182°
2026-04-23 16:48 38.68101 11.94564 19531 ft 362 kts 182°
2026-04-23 16:48 38.65587 11.94677 19193 ft 361 kts 182°
2026-04-23 16:49 38.63891 11.94753 18953 ft 361 kts 181°
2026-04-23 16:49 38.60569 11.94903 18498 ft 360 kts 181°
2026-04-23 16:49 38.58059 11.95019 18110 ft 360 kts 180°
2026-04-23 16:49 38.55612 11.95676 17707 ft 363 kts 156°
2026-04-23 16:50 38.53430 11.97278 17325 ft 362 kts 146°
2026-04-23 16:50 38.51342 11.99076 16964 ft 360 kts 144°
2026-04-23 16:50 38.49285 12.00886 16598 ft 359 kts 145°
2026-04-23 16:50 38.47227 12.02684 16254 ft 357 kts 146°
2026-04-23 16:51 38.45175 12.04456 15946 ft 356 kts 146°
2026-04-23 16:51 38.43124 12.06211 15612 ft 354 kts 146°
2026-04-23 16:51 38.41080 12.07948 15279 ft 352 kts 146°
2026-04-23 16:51 38.39046 12.09673 14944 ft 350 kts 146°
2026-04-23 16:52 38.37021 12.11387 14628 ft 349 kts 146°
2026-04-23 16:52 38.35005 12.13094 14299 ft 347 kts 146°
2026-04-23 16:52 38.33001 12.14790 14011 ft 344 kts 146°
2026-04-23 16:52 38.31016 12.16471 13681 ft 342 kts 146°
2026-04-23 16:53 38.29036 12.18147 13339 ft 340 kts 146°
2026-04-23 16:53 38.27076 12.19805 13006 ft 338 kts 146°
2026-04-23 16:53 38.25781 12.20900 12788 ft 336 kts 146°
2026-04-23 16:53 38.23838 12.22543 12459 ft 334 kts 146°
2026-04-23 16:54 38.21910 12.24171 12140 ft 332 kts 146°
2026-04-23 16:54 38.19990 12.25792 11819 ft 330 kts 146°
2026-04-23 16:54 38.18083 12.27402 11504 ft 328 kts 146°
2026-04-23 16:54 38.16190 12.28998 11196 ft 326 kts 146°
2026-04-23 16:55 38.14308 12.30584 10886 ft 324 kts 146°
2026-04-23 16:55 38.12436 12.32160 10578 ft 322 kts 146°
2026-04-23 16:55 38.10578 12.33723 10277 ft 320 kts 146°
2026-04-23 16:55 38.08748 12.35262 10128 ft 312 kts 146°
2026-04-23 16:56 38.06945 12.36778 9821 ft 310 kts 146°
2026-04-23 16:56 38.05151 12.38285 9515 ft 308 kts 145°
2026-04-23 16:56 38.03370 12.39781 9212 ft 306 kts 145°
2026-04-23 16:56 38.01603 12.41263 8937 ft 303 kts 145°
2026-04-23 16:57 37.99848 12.42735 8646 ft 301 kts 145°
2026-04-23 16:57 37.98109 12.44194 8350 ft 299 kts 145°
2026-04-23 16:57 37.96382 12.45641 8057 ft 296 kts 145°
2026-04-23 16:57 37.94666 12.47078 7777 ft 294 kts 145°
2026-04-23 16:58 37.92967 12.48500 7500 ft 292 kts 145°
2026-04-23 16:58 37.91273 12.49916 7220 ft 291 kts 144°
2026-04-23 16:58 37.89589 12.51327 6953 ft 289 kts 143°
2026-04-23 16:58 37.88045 12.52898 6643 ft 288 kts 135°
2026-04-23 16:59 37.86584 12.54616 6361 ft 287 kts 134°
2026-04-23 16:59 37.85136 12.56346 6061 ft 286 kts 134°
2026-04-23 16:59 37.83684 12.58065 5772 ft 285 kts 134°
2026-04-23 16:59 37.82238 12.59759 5489 ft 283 kts 134°
2026-04-23 17:00 37.80793 12.61438 5225 ft 281 kts 134°
2026-04-23 17:00 37.79356 12.63096 4960 ft 279 kts 134°
2026-04-23 17:00 37.77943 12.64720 4835 ft 270 kts 134°
2026-04-23 17:00 37.76569 12.66295 4690 ft 263 kts 134°
2026-04-23 17:01 37.75233 12.67826 4587 ft 255 kts 134°
2026-04-23 17:01 37.74072 12.69433 4439 ft 241 kts 111°
2026-04-23 17:01 37.73886 12.71376 4380 ft 216 kts 69°
2026-04-23 17:01 37.74701 12.72822 4226 ft 201 kts 29°
2026-04-23 17:02 37.76026 12.73074 4159 ft 197 kts 346°
2026-04-23 17:02 37.77109 12.72055 3977 ft 201 kts 306°
2026-04-23 17:02 37.77818 12.70560 3793 ft 194 kts 311°
2026-04-23 17:02 37.78622 12.69225 3590 ft 190 kts 313°
2026-04-23 17:03 37.79434 12.67911 3378 ft 188 kts 314°
2026-04-23 17:03 37.80222 12.66627 3175 ft 180 kts 314°
2026-04-23 17:03 37.80965 12.65409 3110 ft 172 kts 314°
2026-04-23 17:03 37.81722 12.64179 2888 ft 180 kts 314°
2026-04-23 17:04 37.82480 12.62939 2664 ft 176 kts 314°
2026-04-23 17:04 37.83220 12.61726 2432 ft 172 kts 313°
2026-04-23 17:04 37.83945 12.60539 2204 ft 168 kts 314°
2026-04-23 17:04 37.84642 12.59399 1992 ft 164 kts 315°
2026-04-23 17:05 37.85342 12.58259 1768 ft 165 kts 314°
2026-04-23 17:05 37.86049 12.57104 1534 ft 167 kts 314°
2026-04-23 17:05 37.86752 12.55953 1304 ft 161 kts 314°
2026-04-23 17:05 37.87414 12.54870 1087 ft 149 kts 315°
2026-04-23 17:06 37.88050 12.53832 919 ft 153 kts 315°
2026-04-23 17:06 37.88716 12.52751 638 ft 159 kts 314°
2026-04-23 17:06 37.89383 12.51661 425 ft 154 kts 315°
2026-04-23 17:06 37.90028 12.50596 218 ft 150 kts 315°
2026-04-23 17:07 37.90666 12.49567 42 ft 146 kts 308°
2026-04-23 17:07 37.91197 12.48704 29 ft 94 kts 308°
2026-04-23 17:07 37.91471 12.48258 20 ft 46 kts 309°
2026-04-23 17:07 37.91666 12.47952 17 ft 43 kts 304°
2026-04-23 17:08 37.91823 12.47687 19 ft 21 kts 307°
2026-04-23 17:08 37.91945 12.47669 21 ft 20 kts 48°
2026-04-23 17:08 37.91989 12.47814 22 ft 20 kts 121°
2026-04-23 17:08 37.91912 12.47954 20 ft 19 kts 128°
2026-04-23 17:09 37.91830 12.48085 21 ft 19 kts 128°
2026-04-23 17:09 37.91752 12.48212 18 ft 18 kts 128°
2026-04-23 17:09 37.91670 12.48345 22 ft 21 kts 128°
2026-04-23 17:09 37.91570 12.48508 24 ft 26 kts 128°
2026-04-23 17:10 37.91455 12.48696 27 ft 29 kts 128°
2026-04-23 17:10 37.91335 12.48891 29 ft 27 kts 128°
2026-04-23 17:10 37.91225 12.49070 27 ft 25 kts 128°
2026-04-23 17:10 37.91123 12.49236 28 ft 23 kts 128°
2026-04-23 17:11 37.91026 12.49392 30 ft 22 kts 128°
2026-04-23 17:11 37.90917 12.49518 33 ft 22 kts 188°
2026-04-23 17:11 37.90794 12.49416 32 ft 21 kts 208°
2026-04-23 17:11 37.90657 12.49451 35 ft 21 kts 159°
2026-04-23 17:12 37.90526 12.49518 32 ft 20 kts 157°
2026-04-23 17:12 37.90390 12.49551 29 ft 20 kts 143°
2026-04-23 17:12 37.90303 12.49683 29 ft 18 kts 132°
2026-04-23 17:12 37.90256 12.49710 29 ft 5 kts 223°
2026-04-23 17:13 37.90246 12.49670 29 ft 5 kts 261°
2026-04-23 17:13 37.90245 12.49666 29 ft 2 kts 261°
2026-04-23 17:13 37.90245 12.49660 29 ft 0 kts 261°